Waarnemingen

Advertentie
Mijn weer
Fürstenzell, Duitsland (10895): temperatuur & dauwpunt: 23.03.2017 01:00:00 - 29.03.2017 01:00:00 (CEST)Fürstenzell, Duitsland (10895): temperatuur 5cm & temperatuur -5cm: 23.03.2017 01:00:00 - 29.03.2017 01:00:00 (CEST)Fürstenzell, Duitsland (10895): temperatuur -20cm & temperatuur -100cm: 23.03.2017 01:00:00 - 29.03.2017 01:00:00 (CEST)Fürstenzell, Duitsland (10895): windsnelheid & windstoten: 23.03.2017 01:00:00 - 29.03.2017 01:00:00 (CEST)Fürstenzell, Duitsland (10895): windrichting: 23.03.2017 01:00:00 - 29.03.2017 01:00:00 (CEST)Fürstenzell, Duitsland (10895): luchtdruk: 23.03.2017 01:00:00 - 29.03.2017 01:00:00 (CEST)Fürstenzell, Duitsland (10895): zicht: 23.03.2017 01:00:00 - 29.03.2017 01:00:00 (CEST)Fürstenzell, Duitsland (10895): Zonneschijnduur: 23.03.2017 01:00:00 - 29.03.2017 01:00:00 (CEST)Fürstenzell, Duitsland (10895): neerslag: 23.03.2017 01:00:00 - 29.03.2017 01:00:00 (CEST)
Datum & Tijd tt [°C] td [°C] tt 5cm [°C] tt -5cm [°C] tt -20cm [°C] tt -100cm [°C] ff [km/u] ff [kn] fx [km/u] fx [kn] dd ppp [hPa] vv [km] sd [min] rr [mm]
29.03.2017 01:00:00 7,6 2,7 5,8 7,2 9,4 6,8 5 3 6 4 NO 1025,7 23 0 0,0
29.03.2017 00:00:00 9,8 1,9 2,5 7,8 9,7 6,8 2 1 9 5 ZZO 1024,9 22 0 0,0
28.03.2017 23:00:00 11,3 1,4 4,3 8,4 10,0 6,8 8 4 9 5 WZW 1024,3 22 0 0,0
28.03.2017 22:00:00 12,4 1,2 5,3 9,3 10,2 6,8 5 3 10 5 WZW 1023,9 22 0 0,0
28.03.2017 21:00:00 13,7 1,3 7,3 10,4 10,4 6,8 9 5 12 6 NW 1023,2 22 0 0,0
28.03.2017 20:00:00 14,0 1,0 6,8 11,7 10,4 6,8 7 4 12 7 WNW 1022,6 30 26 0,0
28.03.2017 19:00:00 15,6 1,1 12,5 13,3 10,3 6,8 8 4 19 10 W 1021,9 29 60 0,0
28.03.2017 18:00:00 16,7 1,4 16,2 14,6 10,0 6,8 10 6 21 11 WZW 1021,5 25 60 0,0
28.03.2017 17:00:00 16,3 0,9 17,6 15,7 9,5 6,8 14 7 22 12 W 1021,7 25 60 0,0
28.03.2017 16:00:00 16,3 2,6 19,1 16,1 8,9 6,8 10 5 20 11 W 1022,0 14 60 0,0
28.03.2017 15:00:00 15,5 2,1 19,3 16,0 8,2 6,8 5 3 21 12 WZW 1022,6 14 60 0,0
28.03.2017 14:00:00 14,5 2,3 18,0 15,1 7,5 6,8 8 4 16 9 ZW 1023,3 11 60 0,0
28.03.2017 13:00:00 12,8 1,9 16,4 13,5 6,9 6,8 7 4 13 7 ZZW 1024,1 13 60 0,0
28.03.2017 12:00:00 10,9 0,1 15,1 11,3 6,5 6,8 7 4 15 8 Z 1024,7 15 60 0,0
28.03.2017 11:00:00 9,0 -1,4 11,8 9,2 6,2 6,8 8 4 16 9 ZZO 1025,1 19 60 0,0
28.03.2017 10:00:00 8,7 -1,2 10,9 6,9 6,1 6,8 6 4 11 6 ZZO 1024,9 20 60 0,0
28.03.2017 09:00:00 5,3 -0,9 8,1 4,6 6,2 6,8 3 2 8 5 WZW 1025,3 27 60 0,0
28.03.2017 08:00:00 4,3 -0,8 3,1 3,2 6,4 6,8 4 2 7 4 NO 1025,1 44 48 0,0
28.03.2017 07:00:00 3,1 -1,6 0,0 3,1 6,7 6,8 4 2 7 4 NO 1024,9 44 0 0,0
28.03.2017 06:00:00 4,6 -2,4 -1,9 3,6 7,0 6,8 3 2 9 5 ZW 1024,5 50 0 0,0
28.03.2017 05:00:00 4,0 -1,5 1,9 4,0 7,2 6,8 8 4 10 5 NO 1024,4 48 0 0,0
28.03.2017 04:00:00 4,4 -1,3 1,5 4,4 7,5 6,8 8 5 9 5 NO 1024,4 51 0 0,0
28.03.2017 03:00:00 5,2 -1,3 2,4 4,8 7,8 6,8 7 4 10 5 NO 1024,6 47 0 0,0
28.03.2017 02:00:00 5,4 -1,6 2,5 5,2 8,1 6,8 9 5 12 6 NO 1024,7 52 0 0,0
28.03.2017 01:00:00 7,3 -2,2 4,3 5,7 8,4 6,8 8 5 11 6 NO 1024,5 62 0 0,0
28.03.2017 00:00:00 8,2 -4,3 1,4 6,3 8,7 6,8 8 5 11 6 OZO 1024,4 69 0 0,0
27.03.2017 23:00:00 8,4 -4,3 3,0 7,1 9,0 6,8 9 5 21 12 OZO 1024,3 67 0 0,0
27.03.2017 22:00:00 9,5 -3,8 4,6 8,0 9,3 6,8 17 9 24 13 ZO 1024,0 68 0 0,0
27.03.2017 21:00:00 11,3 -3,4 8,1 9,0 9,4 6,8 14 8 19 11 OZO 1023,4 66 0 0,0
27.03.2017 20:00:00 12,1 -1,2 7,8 10,3 9,5 6,8 10 6 15 8 O 1022,7 32 35 0,0
27.03.2017 19:00:00 13,8 -1,8 11,2 12,0 9,3 6,8 13 7 18 10 O 1022,4 45 60 0,0
27.03.2017 18:00:00 14,8 -2,6 14,4 13,2 9,0 6,8 10 6 22 12 OZO 1022,2 30 60 0,0
27.03.2017 17:00:00 15,1 -3,6 16,3 14,2 8,6 6,8 8 5 26 14 OZO 1022,5 27 60 0,0
27.03.2017 16:00:00 15,0 -5,5 17,0 14,5 8,0 6,8 13 7 29 16 ZO 1023,0 21 60 0,0
27.03.2017 15:00:00 14,5 -5,0 17,0 14,2 7,4 6,8 19 10 36 19 ZO 1023,7 17 60 0,0
27.03.2017 14:00:00 13,9 -5,3 15,7 13,6 6,7 6,8 19 11 34 18 ZZO 1024,6 10 60 0,0
27.03.2017 13:00:00 12,9 -3,6 15,6 12,6 6,1 6,8 18 10 31 17 OZO 1025,1 15 60 0,0
27.03.2017 12:00:00 11,3 -3,3 13,9 10,9 5,5 6,8 14 8 22 12 O 1025,7 13 60 0,0
27.03.2017 11:00:00 9,2 -1,5 10,9 8,3 5,2 6,8 9 5 16 8 O 1026,4 25 59 0,0
27.03.2017 10:00:00 6,2 -1,3 8,0 5,4 5,1 6,8 9 5 12 7 ONO 1027,0 23 60 0,0
27.03.2017 09:00:00 3,3 -2,4 4,2 2,6 5,2 6,8 9 5 12 7 NO 1027,5 18 60 0,0
27.03.2017 08:00:00 1,8 -2,9 0,9 1,4 5,5 6,8 8 4 12 7 NO 1027,7 41 47 0,0
27.03.2017 07:00:00 0,0 -3,6 -2,0 1,5 5,7 6,8 10 5 16 9 ONO 1028,3 49 0 0,0
27.03.2017 06:00:00 -0,3 -3,5 -1,7 1,6 6,0 6,8 10 5 16 9 ONO 1028,1 51 0 0,0
27.03.2017 05:00:00 -0,2 -3,1 -1,6 1,8 6,3 6,8 12 6 14 8 NO 1028,2 43 0 0,0
27.03.2017 04:00:00 0,4 -2,8 -2,3 2,3 6,6 6,8 10 5 12 6 ONO 1028,3 47 0 0,0
27.03.2017 03:00:00 1,2 -2,6 -0,3 2,7 7,0 6,8 10 5 12 7 NO 1028,1 49 0 0,0
27.03.2017 02:00:00 1,5 -1,9 0,1 3,2 7,3 6,7 11 6 14 7 NO 1028,0 47 0 0,0
27.03.2017 01:00:00 3,2 -2,9 1,7 3,8 7,6 6,7 9 5 12 7 NO 1027,7 59 0 0,0
27.03.2017 00:00:00 3,7 -3,1 1,3 4,3 8,0 6,7 6 3 25 14 NO 1027,3 63 0 0,0
26.03.2017 23:00:00 5,6 -4,1 2,8 4,9 8,4 6,7 14 7 20 11 O 1026,7 69 0 0,0
26.03.2017 22:00:00 5,2 -3,6 1,6 5,7 8,7 6,7 10 5 18 10 OZO 1026,3 70 0 0,0
26.03.2017 21:00:00 6,1 -4,1 4,1 6,6 9,0 6,7 14 7 21 12 ONO 1025,4 61 0 0,0
26.03.2017 20:00:00 7,7 -4,6 5,8 7,8 9,3 6,7 17 9 29 16 ONO 1024,4 70 31 0,0
26.03.2017 19:00:00 9,2 -5,8 7,9 9,4 9,3 6,7 18 10 31 17 ONO 1023,6 50 60 0,0
26.03.2017 18:00:00 10,4 -5,3 9,8 10,9 9,1 6,7 19 10 31 17 ONO 1023,1 36 60 0,0
26.03.2017 17:00:00 11,0 -5,0 11,2 12,3 8,8 6,7 20 11 34 19 ONO 1023,0 32 60 0,0
26.03.2017 16:00:00 11,4 -3,9 13,1 13,3 8,4 6,7 10 5 40 21 O 1022,9 22 60 0,0
26.03.2017 15:00:00 10,9 -0,5 12,9 13,4 7,9 6,7 17 9 44 24 ZZO 1022,9 26 57 0,0
26.03.2017 14:00:00 11,0 -2,2 12,9 13,1 7,3 6,7 19 11 36 19 NO 1022,7 19 60 0,0
26.03.2017 13:00:00 9,9 -4,3 12,6 12,0 6,8 6,7 18 10 33 18 OZO 1023,2 16 60 0,0
26.03.2017 12:00:00 9,1 -3,4 11,7 10,2 6,5 6,7 19 10 40 22 O 1023,1 16 60 0,0
26.03.2017 11:00:00 8,5 -3,1 10,0 8,8 6,2 6,7 24 13 40 22 ONO 1022,6 45 60 0,0
26.03.2017 10:00:00 7,3 -2,4 8,4 6,9 6,1 6,7 27 15 38 20 ONO 1022,3 23 60 0,0
26.03.2017 09:00:00 5,8 0,0 6,4 4,9 6,2 6,7 14 8 21 11 ONO 1022,4 23 60 0,0
26.03.2017 08:00:00 4,2 -1,1 3,7 3,3 6,4 6,7 12 6 18 10 ONO 1022,5 23 40 0,0
26.03.2017 07:00:00 3,3 -1,0 0,5 3,2 6,6 6,7 10 5 13 7 O 1022,4 26 0 0,0
26.03.2017 06:00:00 3,3 -0,1 1,5 3,7 6,8 6,7 7 4 11 6 NO 1022,1 23 0 0,0
26.03.2017 05:00:00 3,3 -0,3 2,2 3,9 7,1 6,7 10 5 17 9 NO 1022,1 22 0 0,0
26.03.2017 04:00:00 3,9 -0,4 2,0 4,2 7,3 6,7 6 4 9 5 NO 1022,1 20 0 0,0
26.03.2017 03:00:00 4,9 -0,8 1,3 4,4 7,6 6,7 6 3 10 5 NO 1022,1 24 0 0,0
26.03.2017 02:00:00 5,8 -0,5 2,8 4,8 7,9 6,7 8 4 13 7 N 1022,2 28 0 0,0
26.03.2017 01:00:00 6,3 -0,7 2,0 5,3 8,2 6,7 4 2 11 6 NO 1022,1 30 0 0,0
26.03.2017 00:00:00 5,9 0,3 2,4 5,8 8,5 6,7 7 4 14 8 NO 1022,5 27 0 0,0
25.03.2017 23:00:00 6,6 0,4 4,5 6,4 8,8 6,7 9 5 18 10 ONO 1022,1 26 0 0,0
25.03.2017 22:00:00 6,5 1,0 4,8 7,2 9,1 6,7 12 6 15 8 NO 1022,3 25 0 0,0
25.03.2017 21:00:00 7,5 0,5 6,2 8,1 9,4 6,7 13 7 19 11 ONO 1022,1 32 0 0,0
25.03.2017 20:00:00 9,2 0,4 7,2 9,2 9,5 6,7 12 6 23 12 ONO 1022,0 36 20 0,0
25.03.2017 19:00:00 11,3 -1,5 9,7 10,7 9,5 6,7 15 8 26 14 O 1021,8 40 60 0,0
25.03.2017 18:00:00 12,6 -1,3 11,9 12,2 9,2 6,7 14 8 27 14 O 1022,0 22 60 0,0
25.03.2017 17:00:00 13,0 -1,0 13,6 13,3 8,8 6,7 14 8 29 16 O 1022,3 37 60 0,0
25.03.2017 16:00:00 13,2 -0,7 14,5 14,0 8,3 6,7 16 8 30 16 ONO 1023,0 24 60 0,0
25.03.2017 15:00:00 12,9 1,6 14,9 13,9 7,7 6,7 14 8 34 18 O 1024,0 18 60 0,0
25.03.2017 14:00:00 11,6 0,2 14,2 13,2 7,1 6,7 17 9 29 16 ONO 1025,2 26 60 0,0
25.03.2017 13:00:00 11,0 0,8 13,1 12,0 6,6 6,6 19 11 36 19 ONO 1026,0 21 60 0,0
25.03.2017 12:00:00 9,1 0,8 11,2 10,4 6,2 6,6 18 10 30 16 O 1027,1 19 60 0,0
25.03.2017 11:00:00 7,6 0,7 9,5 8,3 5,9 6,6 22 12 34 19 ONO 1028,1 17 60 0,0
25.03.2017 10:00:00 6,4 1,5 8,0 6,1 5,9 6,6 14 8 23 12 ONO 1028,3 11 60 0,0
25.03.2017 09:00:00 4,1 1,3 4,6 3,8 6,0 6,6 13 7 17 9 ONO 1029,1 8 60 0,0
25.03.2017 08:00:00 1,9 0,4 1,3 2,7 6,3 6,6 13 7 20 11 ONO 1029,5 7 14 0,0
25.03.2017 07:00:00 1,3 0,4 0,3 2,8 6,5 6,6 15 8 22 12 ONO 1029,6 6 0 0,0
25.03.2017 06:00:00 1,8 0,6 0,8 3,2 6,8 6,6 13 7 19 10 ONO 1029,5 6 0 0,0
25.03.2017 05:00:00 2,6 1,3 1,1 3,6 7,1 6,6 11 6 18 10 O 1029,6 7 0 0,0
25.03.2017 04:00:00 2,5 1,4 1,5 4,0 7,4 6,6 17 9 24 13 ONO 1030,1 6 0 0,0
25.03.2017 03:00:00 2,8 1,7 1,8 4,5 7,7 6,6 18 10 27 14 ONO 1030,3 6 0 0,0
25.03.2017 02:00:00 2,9 2,2 1,9 5,1 8,0 6,6 15 8 18 10 NO 1030,4 5 0 0,0
25.03.2017 01:00:00 3,5 2,5 2,4 5,8 8,2 6,6 13 7 15 8 NO 1030,4 6 0 0,0
25.03.2017 00:00:00 4,3 3,0 3,9 6,3 8,5 6,6 11 6 18 10 ONO 1030,5 7 0 0,0
24.03.2017 23:00:00 4,7 3,3 2,8 7,0 8,7 6,6 9 5 13 7 ONO 1030,4 8 0 0,0
24.03.2017 22:00:00 5,9 3,3 4,9 8,1 8,8 6,6 10 5 15 8 O 1029,8 10 0 0,0
24.03.2017 21:00:00 6,6 4,0 6,5 8,7 9,0 6,6 8 4 14 7 O 1029,0 13 0 0,0
24.03.2017 20:00:00 7,0 4,2 6,6 9,4 9,0 6,6 8 4 15 8 OZO 1028,2 15 0 0,0
24.03.2017 19:00:00 7,5 4,7 7,1 10,2 9,0 6,6 9 5 22 12 ZZO 1027,6 13 7 0,0
24.03.2017 18:00:00 8,3 5,0 8,9 11,2 8,8 6,6 16 9 22 12 ZO 1026,9 13 0 0,0
24.03.2017 17:00:00 9,0 5,5 9,6 11,8 8,5 6,6 8 5 16 9 OZO 1026,5 13 11 0,0
24.03.2017 16:00:00 9,8 5,2 11,0 12,1 8,2 6,6 13 7 19 11 O 1026,3 16 33 0,0
24.03.2017 15:00:00 10,0 5,4 11,3 11,8 7,8 6,6 12 7 23 12 O 1026,1 21 0 0,0
24.03.2017 14:00:00 9,2 5,4 11,2 11,4 7,4 6,6 8 4 12 7 ZZW 1026,6 20 0 0,0
24.03.2017 13:00:00 8,6 5,2 10,6 10,5 7,1 6,5 8 4 14 8 Z 1026,9 19 0 0,0
24.03.2017 12:00:00 8,1 5,2 9,9 10,0 6,7 6,5 9 5 18 10 ZZO 1026,6 17 9 0,0
24.03.2017 11:00:00 7,7 5,1 8,8 8,7 6,5 6,5 9 5 17 9 ZZO 1026,3 16 31 0,0
24.03.2017 10:00:00 6,2 4,6 7,3 6,9 6,4 6,5 11 6 17 9 OZO 1025,6 11 58 0,0
24.03.2017 09:00:00 4,2 3,2 4,2 4,8 6,6 6,5 10 6 15 8 ZO 1025,8 8 53 0,0
24.03.2017 08:00:00 3,4 3,3 2,4 3,9 6,8 6,5 3 2 9 5 O 1025,1 10 4 0,0
24.03.2017 07:00:00 2,2 2,2 0,1 4,0 7,0 6,5 6 3 8 4 O 1024,6 0,3 0 0,0
24.03.2017 06:00:00 3,5 3,2 1,8 4,3 7,2 6,5 5 3 10 5 NO 1023,7 6 0 0,0
24.03.2017 05:00:00 4,1 4,0 2,5 4,6 7,4 6,5 4 2 8 4 NNO 1022,8 9 0 0,0
24.03.2017 04:00:00 3,1 3,1 2,4 5,0 7,7 6,5 7 4 10 5 NO 1021,9 0,2 0 0,0
24.03.2017 03:00:00 4,2 4,2 3,2 5,2 7,9 6,5 7 4 10 5 NNO 1021,2 1,0 0 0,0
24.03.2017 02:00:00 4,4 4,4 2,1 5,7 8,2 6,5 6 3 9 5 O 1021,0 2,4 0 0,0
24.03.2017 01:00:00 4,9 4,9 2,3 6,0 8,5 6,5 5 3 10 5 ONO 1020,3 3,5 0 0,0
24.03.2017 00:00:00 5,2 4,8 3,0 6,5 8,8 6,5 6 3 8 4 ONO 1020,2 3,5 0 0,0
23.03.2017 23:00:00 6,4 5,3 2,3 7,1 9,0 6,5 0 0 4 2 N 1019,7 8 0 0,0
23.03.2017 22:00:00 6,7 5,2 3,2 7,8 9,3 6,5 5 3 9 5 NNO 1018,9 9 0 0,0
23.03.2017 21:00:00 7,4 5,4 4,7 8,7 9,4 6,5 4 2 9 5 NO 1018,3 9 0 0,0
23.03.2017 20:00:00 7,8 5,5 6,7 9,7 9,5 6,5 8 4 13 7 N 1017,7 11 10 0,0
23.03.2017 19:00:00 8,5 5,5 8,1 11,1 9,4 6,4 11 6 14 8 N 1016,8 13 60 0,0
23.03.2017 18:00:00 10,1 6,1 10,2 12,2 9,1 6,4 9 5 15 8 NNO 1016,2 16 47 0,0
23.03.2017 17:00:00 10,8 5,4 11,5 13,2 8,7 6,4 4 2 14 7 NNO 1016,0 16 60 0,0
23.03.2017 16:00:00 9,9 4,9 11,9 13,0 8,2 6,4 8 4 16 9 NNO 1016,3 16 57 0,0
23.03.2017 15:00:00 8,6 4,5 10,6 12,1 7,9 6,4 8 4 15 8 N 1016,7 13 20 0,0
23.03.2017 14:00:00 8,3 4,8 10,7 10,8 7,5 6,4 7 4 14 8 ONO 1017,0 13 1 0,0
23.03.2017 13:00:00 7,7 4,9 9,3 9,7 7,3 6,4 4 2 11 6 OZO 1017,3 10 0 0,0
23.03.2017 12:00:00 6,0 4,8 7,7 8,2 7,2 6,4 7 4 13 7 ZZO 1017,6 5 0 0,0
23.03.2017 11:00:00 5,4 4,6 6,4 7,2 7,2 6,4 8 4 14 8 Z 1017,5 4,8 0 0,0
23.03.2017 10:00:00 5,0 4,3 5,8 6,6 7,3 6,4 6 3 14 7 Z 1017,2 4,2 0 0,0
23.03.2017 09:00:00 4,5 3,9 5,0 6,2 7,4 6,4 9 5 16 9 Z 1016,7 4,0 0 0,0
23.03.2017 08:00:00 4,6 4,0 4,8 6,2 7,4 6,4 8 4 14 8 ZZW 1016,1 4,8 0 0,0
23.03.2017 07:00:00 4,6 3,8 4,7 6,3 7,5 6,4 8 4 13 7 ZZW 1015,6 5 0 0,0
23.03.2017 06:00:00 4,7 3,8 4,9 6,5 7,6 6,3 9 5 16 9 ZZO 1014,7 5 0 0,0
23.03.2017 05:00:00 4,9 4,0 5,1 6,7 7,7 6,3 9 5 21 12 ZZO 1014,5 5 0 0,0
23.03.2017 04:00:00 5,2 4,3 5,3 6,9 7,8 6,3 16 9 21 11 ZO 1014,1 5 0 0,0
23.03.2017 03:00:00 5,9 5,4 5,9 7,0 7,9 6,3 7 4 14 8 ZZO 1014,6 4,5 0 0,0
23.03.2017 02:00:00 6,4 4,8 6,3 7,1 8,0 6,3 10 5 24 13 O 1014,4 20 0 0,0
23.03.2017 01:00:00 - - - - - - - - - - - - - - -

tt = temperatuur
td = dauwpunt
tt 5cm = temperatuur 5cm
tt -5cm = temperatuur -5cm
tt -20cm = temperatuur -20cm
tt -100cm = temperatuur -100cm
ff = windsnelheid
fx = windstoten
dd = windrichting
ppp = luchtdruk
vv = zicht
sd = Zonneschijnduur
rr = neerslag

Weerstations in de omgeving